{"data":{"norad_id":55816,"intl_designator":"2023-029W","name":"ONEWEB-0654","alt_names":[],"object_type":"PAYLOAD","status":"ACTIVE","operator":null,"country":"UK","launch_date":"2023-03-09","launch_site_code":"AFETR","launch_vehicle":null,"mission":null,"orbit_class":"UNKNOWN","rcs_meters":null,"size_class":null,"mass_kg":null,"dimensions":null,"purposes":["comms"],"wikipedia_slug":null,"has_3d_model":false,"image_url":null,"decayed_at":null,"tle_current":{"epoch":"2026-05-25T03:52:15.520800Z","epoch_age_seconds":64281,"freshness":"FRESH","line1":"1 55816U 23029W   26145.16129075  .00000166  00000+0  41244-3 0  9990","line2":"2 55816  87.8941 294.2972 0002189  99.2138 260.9240 13.14502106156391","mean_motion":13.14502106,"eccentricity":0.0002189,"inclination_deg":87.8941,"raan_deg":294.2972,"arg_perigee_deg":99.2138,"mean_anomaly_deg":260.924,"bstar":0.00041244,"rev_number":15639,"period_min":109.54718090045,"perigee_km":1204.1329016842,"apogee_km":1207.4531462487,"semimajor_km":7583.9300239664,"source":"CELESTRAK","updated_at":"2026-05-25T13:38:22.694624Z"}}}